Weather History for West Plains, MO

Change the Weather History Date:

Monday, March 4, 2013

  Actual Average Record
Temperature  
Mean Temperature 42 °F 43 °F  
Max Temperature 50 °F 55 °F 80 °F (1955)
Min Temperature 34 °F 31 °F 4 °F (2014)
Degree Days  
Heating Degree Days 23 22  
Month to date heating degree days 130 90  
Since 1 July heating degree days 3442 3554  
Cooling Degree Days 0 0  
Month to date cooling degree days 0 0  
Year to date cooling degree days 0 0  
Moisture  
Dew Point 34 °F    
Average Humidity 77    
Maximum Humidity 93    
Minimum Humidity 60    
Precipitation  
Precipitation 0.00 in 0.13 in 2.05 in (1963)
Month to date precipitation 0.01 0.42  
Year to date precipitation 7.33 5.98  
Sea Level Pressure  
Sea Level Pressure 29.80 in    
Wind  
Wind Speed 8 mph (SE)    
Max Wind Speed 13 mph    
Max Gust Speed 20 mph    
Visibility 10 miles    
Events      
T = Trace of Precipitation, MM = Missing Value Source: NWS Daily Summary

Daily Weather History Graph

Daily Weather History Graph

Search for Another Location

Airport:

Trip Planner

Search our weather history database for the weather conditions in past years. The results will help you decide how hot, cold, wet, or windy it might be!

Date:

Astronomy

Mar. 04, 2013 Rise Set
Actual Time 6:33 AM CST 6:05 PM CST
Civil Twilight 6:08 AM CST 6:31 PM CST
Nautical Twilight 5:38 AM CST 7:01 PM CST
Astronomical Twilight 5:07 AM CST 7:31 PM CST
Moon 12:37 AM CST (3/4) 10:53 AM CST (3/4)
Length of Visible Light 12h 23m
Length of Day
11h 31m
Waning Gibbous, 52% of the Moon is Illuminated
Mar 4
Waning Gibbous
Mar 4
Last Quarter
Mar 11
New
Mar 19
First Quarter
Mar 27
Full

Hourly Weather History & Observations

Time (CST) Temp. Windchill Dew Point Humidity Pressure Visibility Wind Dir Wind Speed Gust Speed Precip Events Conditions
12:53 AM 34.0 °F 28.0 °F 24.1 °F 67% 29.96 in 10.0 mi SE 6.9 mph - N/A   Clear
1:53 AM 34.0 °F 26.0 °F 25.0 °F 70% 29.94 in 10.0 mi ESE 10.4 mph 17.3 mph N/A   Clear
2:53 AM 34.0 °F 28.8 °F 25.0 °F 70% 29.91 in 10.0 mi SE 5.8 mph - N/A   Clear
3:53 AM 34.0 °F 25.5 °F 25.0 °F 70% 29.86 in 10.0 mi ESE 11.5 mph - N/A   Clear
4:53 AM 35.1 °F 27.4 °F 26.1 °F 70% 29.85 in 10.0 mi ESE 10.4 mph - N/A   Clear
5:53 AM 35.1 °F 27.9 °F 26.1 °F 70% 29.85 in 10.0 mi SE 9.2 mph - N/A   Clear
6:53 AM 35.1 °F 27.9 °F 26.1 °F 70% 29.85 in 10.0 mi ESE 9.2 mph - N/A   Clear
7:53 AM 37.0 °F 29.8 °F 26.1 °F 65% 29.84 in 10.0 mi ESE 10.4 mph - N/A   Clear
8:53 AM 39.9 °F 33.4 °F 28.0 °F 63% 29.83 in 10.0 mi SE 10.4 mph 18.4 mph N/A   Clear
9:53 AM 44.1 °F 38.1 °F 32.0 °F 63% 29.82 in 10.0 mi SSE 11.5 mph 18.4 mph N/A   Clear
10:22 AM 44.6 °F 38.8 °F 33.8 °F 66% 29.80 in 10.0 mi South 11.5 mph 19.6 mph N/A   Mostly Cloudy
10:53 AM 46.0 °F 40.6 °F 34.0 °F 63% 29.80 in 10.0 mi SSE 11.5 mph 18.4 mph N/A   Overcast
11:53 AM 46.9 °F - 36.0 °F 66% 29.78 in 10.0 mi SSE 10.4 mph - N/A   Overcast
12:53 PM 50.0 °F - 37.0 °F 61% 29.75 in 10.0 mi SSE 9.2 mph - N/A   Overcast
1:53 PM 48.9 °F - 39.0 °F 69% 29.73 in 10.0 mi SE 12.7 mph 17.3 mph N/A   Overcast
2:53 PM 50.0 °F - 39.9 °F 68% 29.73 in 10.0 mi SE 10.4 mph - N/A   Overcast
3:53 PM 48.9 °F - 41.0 °F 74% 29.73 in 10.0 mi SE 9.2 mph - N/A   Overcast
4:53 PM 48.9 °F - 42.1 °F 77% 29.74 in 10.0 mi Variable 4.6 mph - N/A   Overcast
5:53 PM 48.9 °F - 42.1 °F 77% 29.75 in 10.0 mi East 3.5 mph - N/A   Overcast
6:53 PM 46.9 °F - 41.0 °F 80% 29.77 in 10.0 mi ESE 4.6 mph - N/A   Mostly Cloudy
7:07 PM 46.4 °F - 41.0 °F 81% 29.76 in 10.0 mi Calm Calm - N/A   Scattered Clouds
7:53 PM 43.0 °F - 39.0 °F 86% 29.78 in 9.0 mi Calm Calm - N/A   Clear
8:53 PM 42.1 °F - 39.0 °F 89% 29.78 in 10.0 mi Calm Calm - N/A   Clear
9:53 PM 41.0 °F 38.0 °F 37.9 °F 89% 29.77 in 10.0 mi NE 4.6 mph - N/A   Clear
10:53 PM 41.0 °F 39.0 °F 39.0 °F 93% 29.77 in 9.0 mi NNE 3.5 mph - N/A   Clear
11:53 PM 39.0 °F - 37.9 °F 96% 29.77 in 7.0 mi Calm Calm - N/A   Clear